TimeCDT,TemperatureF,Dew PointF,Humidity,Sea Level PressureIn,VisibilityMPH,Wind Direction,Wind SpeedMPH,Gust SpeedMPH,PrecipitationIn,Events,Conditions,WindDirDegrees,DateUTC
12:14 AM,57.2,51.8,82,30.10,10.0,NNW,6.9,-,N/A,,Clear,330,2013-08-03 05:14:00
12:33 AM,57.2,51.8,82,30.10,10.0,NNW,5.8,-,N/A,,Clear,340,2013-08-03 05:33:00
12:53 AM,57.2,50.0,77,30.10,10.0,NNW,4.6,-,N/A,,Clear,340,2013-08-03 05:53:00
1:13 AM,55.4,50.0,82,30.10,10.0,North,5.8,-,N/A,,Clear,350,2013-08-03 06:13:00
1:33 AM,57.2,50.0,77,30.10,10.0,North,5.8,-,N/A,,Clear,350,2013-08-03 06:33:00
1:53 AM,55.4,50.0,82,30.11,10.0,NNW,5.8,-,N/A,,Clear,340,2013-08-03 06:53:00
2:13 AM,55.4,48.2,77,30.10,10.0,North,5.8,-,N/A,,Clear,350,2013-08-03 07:13:00
2:33 AM,55.4,48.2,77,30.11,10.0,North,4.6,-,N/A,,Clear,350,2013-08-03 07:33:00
2:54 AM,53.6,48.2,82,30.12,10.0,NNW,4.6,-,N/A,,Clear,330,2013-08-03 07:54:00
3:13 AM,55.4,50.0,82,30.12,10.0,NNW,5.8,-,N/A,,Clear,340,2013-08-03 08:13:00
3:33 AM,55.4,50.0,82,30.11,10.0,North,5.8,-,N/A,,Clear,350,2013-08-03 08:33:00
3:53 AM,55.4,51.8,88,30.12,10.0,North,5.8,-,N/A,,Clear,350,2013-08-03 08:53:00
4:13 AM,55.4,51.8,88,30.12,10.0,North,5.8,-,N/A,,Clear,10,2013-08-03 09:13:00
4:34 AM,55.4,51.8,88,30.12,10.0,North,5.8,-,N/A,,Clear,360,2013-08-03 09:34:00
4:53 AM,55.4,50.0,82,30.13,10.0,North,6.9,-,N/A,,Clear,350,2013-08-03 09:53:00
5:14 AM,55.4,50.0,82,30.13,10.0,North,4.6,-,N/A,,Clear,350,2013-08-03 10:14:00
5:33 AM,55.4,50.0,82,30.13,10.0,North,4.6,-,N/A,,Clear,360,2013-08-03 10:33:00
5:53 AM,53.6,50.0,88,30.13,10.0,North,4.6,-,N/A,,Clear,360,2013-08-03 10:53:00
6:13 AM,53.6,50.0,88,30.14,10.0,NNW,4.6,-,N/A,,Clear,340,2013-08-03 11:13:00
6:33 AM,53.6,50.0,88,30.14,10.0,NNW,4.6,-,N/A,,Clear,340,2013-08-03 11:33:00
6:54 AM,55.4,50.0,82,30.15,10.0,North,6.9,-,N/A,,Clear,350,2013-08-03 11:54:00
7:13 AM,55.4,51.8,88,30.15,10.0,North,5.8,-,N/A,,Scattered Clouds,350,2013-08-03 12:13:00
7:33 AM,59.0,53.6,82,30.16,10.0,North,5.8,-,N/A,,Scattered Clouds,350,2013-08-03 12:33:00
7:53 AM,59.0,53.6,82,30.17,10.0,North,5.8,-,N/A,,Scattered Clouds,350,2013-08-03 12:53:00
8:13 AM,60.8,53.6,77,30.18,10.0,NNW,3.5,-,N/A,,Clear,340,2013-08-03 13:13:00
8:33 AM,62.6,53.6,72,30.19,10.0,Calm,Calm,-,N/A,,Clear,0,2013-08-03 13:33:00
8:53 AM,64.4,55.4,73,30.19,10.0,Calm,Calm,-,N/A,,Clear,0,2013-08-03 13:53:00
9:14 AM,64.4,55.4,73,30.19,10.0,NNW,4.6,-,N/A,,Clear,340,2013-08-03 14:14:00
9:33 AM,66.2,55.4,68,30.19,10.0,WNW,3.5,-,N/A,,Clear,300,2013-08-03 14:33:00
9:53 AM,66.2,57.2,73,30.19,10.0,North,5.8,-,N/A,,Clear,10,2013-08-03 14:53:00
10:13 AM,66.2,57.2,73,30.21,10.0,North,6.9,-,N/A,,Clear,350,2013-08-03 15:13:00
10:33 AM,68.0,53.6,60,30.20,10.0,NNW,6.9,-,N/A,,Clear,340,2013-08-03 15:33:00
10:54 AM,71.6,53.6,53,30.20,10.0,NW,8.1,-,N/A,,Clear,320,2013-08-03 15:54:00
11:13 AM,71.6,51.8,50,30.20,10.0,NNW,8.1,-,N/A,,Clear,340,2013-08-03 16:13:00
11:33 AM,71.6,51.8,50,30.20,10.0,North,10.4,-,N/A,,Clear,360,2013-08-03 16:33:00
11:53 AM,73.4,48.2,41,30.20,10.0,North,13.8,-,N/A,,Scattered Clouds,350,2013-08-03 16:53:00
12:13 PM,73.4,48.2,41,30.20,10.0,North,10.4,-,N/A,,Scattered Clouds,360,2013-08-03 17:13:00
12:34 PM,73.4,46.4,38,30.20,10.0,North,11.5,17.3,N/A,,Scattered Clouds,360,2013-08-03 17:34:00
12:53 PM,75.2,48.2,38,30.21,10.0,NNW,9.2,16.1,N/A,,Clear,340,2013-08-03 17:53:00
1:13 PM,73.4,48.2,41,30.21,10.0,NW,9.2,-,N/A,,Scattered Clouds,320,2013-08-03 18:13:00
1:33 PM,73.4,48.2,41,30.21,10.0,NW,10.4,16.1,N/A,,Mostly Cloudy,320,2013-08-03 18:33:00
1:53 PM,73.4,46.4,38,30.21,10.0,NNW,10.4,-,N/A,,Scattered Clouds,340,2013-08-03 18:53:00
2:13 PM,75.2,46.4,36,30.21,10.0,North,9.2,-,N/A,,Scattered Clouds,350,2013-08-03 19:13:00
2:33 PM,75.2,46.4,36,30.21,10.0,NNW,9.2,-,N/A,,Scattered Clouds,330,2013-08-03 19:33:00
2:53 PM,73.4,44.6,36,30.21,10.0,NNW,11.5,-,N/A,,Scattered Clouds,340,2013-08-03 19:53:00
3:13 PM,75.2,46.4,36,30.20,10.0,NW,12.7,17.3,N/A,,Scattered Clouds,310,2013-08-03 20:13:00
3:33 PM,75.2,44.6,34,30.20,10.0,NNW,10.4,-,N/A,,Scattered Clouds,330,2013-08-03 20:33:00
3:53 PM,75.2,44.6,34,30.20,10.0,North,8.1,16.1,N/A,,Scattered Clouds,350,2013-08-03 20:53:00
4:13 PM,75.2,44.6,34,30.20,10.0,North,10.4,16.1,N/A,,Clear,350,2013-08-03 21:13:00
4:33 PM,75.2,42.8,31,30.20,10.0,NNW,9.2,-,N/A,,Clear,340,2013-08-03 21:33:00
4:53 PM,75.2,41.0,29,30.20,10.0,NW,12.7,-,N/A,,Clear,310,2013-08-03 21:53:00
5:13 PM,75.2,42.8,31,30.20,10.0,NNW,11.5,18.4,N/A,,Clear,330,2013-08-03 22:13:00
5:33 PM,75.2,42.8,31,30.20,10.0,North,9.2,18.4,N/A,,Clear,360,2013-08-03 22:33:00
5:54 PM,75.2,42.8,31,30.20,10.0,NNW,10.4,-,N/A,,Clear,340,2013-08-03 22:54:00
6:13 PM,73.4,42.8,33,30.20,10.0,North,6.9,-,N/A,,Clear,350,2013-08-03 23:13:00
6:33 PM,73.4,42.8,33,30.19,10.0,NNW,9.2,-,N/A,,Clear,340,2013-08-03 23:33:00
6:53 PM,73.4,44.6,36,30.19,10.0,North,5.8,-,N/A,,Clear,350,2013-08-03 23:53:00
7:13 PM,71.6,46.4,41,30.19,10.0,North,9.2,-,N/A,,Clear,350,2013-08-04 00:13:00
7:34 PM,71.6,46.4,41,30.20,10.0,NNW,8.1,-,N/A,,Clear,340,2013-08-04 00:34:00
7:53 PM,69.8,46.4,43,30.20,10.0,North,6.9,-,N/A,,Clear,350,2013-08-04 00:53:00
8:13 PM,66.2,48.2,52,30.20,10.0,North,5.8,-,N/A,,Clear,360,2013-08-04 01:13:00
8:33 PM,64.4,48.2,56,30.20,10.0,North,4.6,-,N/A,,Clear,350,2013-08-04 01:33:00
8:53 PM,62.6,50.0,63,30.21,10.0,North,5.8,-,N/A,,Clear,350,2013-08-04 01:53:00
9:14 PM,60.8,50.0,68,30.21,10.0,North,4.6,-,N/A,,Clear,350,2013-08-04 02:14:00
9:33 PM,60.8,50.0,68,30.22,10.0,NNW,4.6,-,N/A,,Clear,340,2013-08-04 02:33:00
9:53 PM,59.0,50.0,72,30.23,10.0,NNW,4.6,-,N/A,,Clear,340,2013-08-04 02:53:00
10:13 PM,59.0,48.2,67,30.23,10.0,North,5.8,-,N/A,,Clear,350,2013-08-04 03:13:00
10:33 PM,59.0,48.2,67,30.23,10.0,North,4.6,-,N/A,,Clear,360,2013-08-04 03:33:00
10:54 PM,59.0,48.2,67,30.23,10.0,North,5.8,-,N/A,,Clear,10,2013-08-04 03:54:00
11:13 PM,57.2,48.2,72,30.25,10.0,North,4.6,-,N/A,,Clear,360,2013-08-04 04:13:00
11:33 PM,57.2,48.2,72,30.25,10.0,North,5.8,-,N/A,,Clear,10,2013-08-04 04:33:00
11:53 PM,57.2,48.2,72,30.25,10.0,NNE,4.6,-,N/A,,Clear,20,2013-08-04 04:53:00